sat.trackr.live / text

‹ back to catalog

STARLINK-31681

NORAD 59746 · 2024-090S

PAYLOAD ACTIVE UNKNOWN

§ Identity

Operator
Country
US
Launch date
2024-05-13
Launch site
AFETR
Launch vehicle
Mass (kg)
RCS (m²)

Purposes: comms

External: N2YO · Heavens-Above · Gunter

§ Orbital elements

Epoch: 2026-05-24T22:49:58.311840Z

Period
94.27 min
Inclination
43.0034°
Eccentricity
0.0001361
Mean motion
15.27574088 rev/d
Perigee alt
482.1 km
Apogee alt
484.0 km
Semi-major
6,861.2 km
B*
-7.3193e-7
RAAN
105.8632°
Arg perigee
270.1039°
Mean anomaly
89.9657°
Rev number
11,518

§ Raw data

STARLINK-316811 59746U 24090S   26144.95136935 -.00000282  00000+0 -73193-6 0  99962 59746  43.0034 105.8632 0001361 270.1039  89.9657 15.27574088115182

JSON: /api/v1/satellites/59746 · /tle

For live sub-satellite position, see the globe view (requires WebGL).

§ Visibility from observer

Set your observer location to see the next 7 days of passes ≥ 10°. The values pass through the URL so the page stays shareable.

No JS? Fill the form by hand. The geolocation button needs JavaScript.